User: anonymous   Login
Location: T�chigga el Be�da
(16.4766°N, 9.3887°W)
Time: 17:22:17
(UTC+00:00)
Language:

HJ-1C - Orbit

View from above orbital plane
View from above orbital plane
View from above satellite
View from above satellite

Ground track
Ground track

The orbit data is extracted from the following two-line orbital elements,

1 38997U 12064A   20152.49952480  .00001655  00000-0  40369-4 0  9993
2 38997  97.1544 182.9624 0011627  72.0420  65.5401 15.42250842423173
Epoch (UTC): 31 May 2020 11:59:18
Eccentricity: 0.0011627
inclination: 97.1544°
perigee height: 431 km
apogee height: 447 km
right ascension of ascending node: 182.9624°
argument of perigee: 72.0420°
revolutions per day: 15.42250842
mean anomaly at epoch: 65.5401°
orbit number at epoch: 42317

The dashed part of the orbit path shows where the satellite is in the earth's shadow,  

DLR